Change the Weather History Date:

Thursday, October 25, 2012

  Actual Average Record
Temperature  
Mean Temperature 40 °F -  
Max Temperature 46 °F 52 °F 68 °F (1999)
Min Temperature 35 °F 36 °F 26 °F (2013)
Degree Days  
Heating Degree Days 24    
Moisture  
Dew Point 35 °F    
Average Humidity 82    
Maximum Humidity 93    
Minimum Humidity 55    
Precipitation  
Precipitation 0.63 in - - ()
Sea Level Pressure  
Sea Level Pressure 29.83 in    
Wind  
Wind Speed 15 mph (NNW)    
Max Wind Speed 21 mph    
Max Gust Speed 31 mph    
Visibility 6 miles    
Events Rain , Snow    
Averages and records for this station are not official NWS values.
T = Trace of Precipitation, MM = Missing Value Source: NWS Daily Summary

Daily Weather History Graph

Daily Weather History Graph

Search for Another Location

Airport or City:

Trip Planner

Search our weather history database for the weather conditions in past years. The results will help you decide how hot, cold, wet, or windy it might be!

Date:

Astronomy

Oct. 25, 2012 Rise Set
Actual Time 7:43 AM CDT 6:11 PM CDT
Civil Twilight 7:13 AM CDT 6:41 PM CDT
Nautical Twilight 6:38 AM CDT 7:16 PM CDT
Astronomical Twilight 6:04 AM CDT 7:49 PM CDT
Moon 4:06 PM CDT (10/25) 3:31 AM CDT (10/25)
Length of Visible Light 11h 28m
Length of Day
10h 28m
Waxing Gibbous, 84% of the Moon is Illuminated
Oct 25
Waxing Gibbous
Oct 29
Full
Nov 6
Last Quarter
Nov 13
New
Nov 20
First Quarter

Hourly Weather History & Observations

Time (CDT) Temp. Windchill Dew Point Humidity Pressure Visibility Wind Dir Wind Speed Gust Speed Precip Events Conditions
12:53 AM 46.9 °F - 43.0 °F 86% 29.76 in 10.0 mi North 9.2 mph 18.4 mph 0.00 in   Overcast
1:53 AM 46.0 °F 39.9 °F 43.0 °F 89% 29.72 in 5.0 mi North 13.8 mph 23.0 mph N/A   Overcast
2:32 AM 44.6 °F 37.2 °F 42.8 °F 93% 29.70 in 5.0 mi North 17.3 mph 25.3 mph N/A   Overcast
2:49 AM 44.6 °F 39.2 °F 42.8 °F 93% 29.72 in 4.0 mi North 10.4 mph 18.4 mph N/A   Overcast
2:53 AM 45.0 °F 38.5 °F 42.1 °F 90% 29.72 in 4.0 mi North 13.8 mph 18.4 mph N/A   Overcast
3:02 AM 44.6 °F 36.9 °F 42.8 °F 93% 29.70 in 3.0 mi North 18.4 mph 26.5 mph 0.00 in Rain Light Rain
3:30 AM 44.6 °F 38.4 °F 41.0 °F 87% 29.72 in 3.0 mi NNW 12.7 mph 24.2 mph 0.00 in Rain Light Rain
3:38 AM 44.6 °F 37.4 °F 41.0 °F 87% 29.72 in 3.0 mi NNW 16.1 mph 21.9 mph 0.01 in Rain Light Rain
3:53 AM 44.1 °F 37.4 °F 41.0 °F 89% 29.71 in 3.0 mi North 13.8 mph 25.3 mph 0.01 in Rain Light Rain
4:11 AM 44.6 °F 37.8 °F 41.0 °F 87% 29.69 in 5.0 mi North 15.0 mph 24.2 mph 0.03 in Rain Rain
4:53 AM 43.0 °F 36.4 °F 39.9 °F 89% 29.69 in 4.0 mi North 12.7 mph 23.0 mph 0.22 in Rain Heavy Rain
5:28 AM 42.8 °F 37.0 °F 39.2 °F 87% 29.71 in 3.0 mi North 10.4 mph 21.9 mph 0.11 in Rain Rain
5:42 AM 42.8 °F 36.6 °F 39.2 °F 87% 29.71 in 3.0 mi North 11.5 mph - 0.18 in Rain Heavy Rain
5:53 AM 43.0 °F 36.4 °F 39.9 °F 89% 29.72 in 4.0 mi NNW 12.7 mph - 0.23 in Rain Rain
6:09 AM 42.8 °F 35.1 °F 39.2 °F 87% 29.69 in 4.0 mi North 16.1 mph 25.3 mph 0.06 in Rain Rain
6:53 AM 43.0 °F 34.5 °F 39.0 °F 86% 29.69 in 10.0 mi NNW 19.6 mph 25.3 mph 0.07 in   Overcast
7:53 AM 39.9 °F 30.5 °F 37.0 °F 89% 29.71 in 2.5 mi NNW 19.6 mph 31.1 mph 0.01 in Rain Light Rain
9:05 AM 39.2 °F 29.3 °F 35.6 °F 87% 29.74 in 4.0 mi NNW 20.7 mph 28.8 mph 0.00 in Rain Light Rain
9:12 AM 39.2 °F 29.8 °F 35.6 °F 87% 29.76 in 2.5 mi NNW 18.4 mph 28.8 mph 0.00 in Rain Light Rain
9:49 AM 37.4 °F 27.2 °F 35.6 °F 93% 29.75 in 3.0 mi NNW 19.6 mph 25.3 mph 0.03 in Rain Light Rain
9:53 AM 37.0 °F 27.4 °F 34.0 °F 89% 29.78 in 2.5 mi NNW 17.3 mph 26.5 mph 0.04 in Rain Light Rain
10:03 AM 37.4 °F 27.5 °F 33.8 °F 87% 29.76 in 2.5 mi NNW 18.4 mph 27.6 mph 0.00 in Rain Light Rain
10:10 AM 37.4 °F 27.5 °F 33.8 °F 87% 29.76 in 2.5 mi NW 18.4 mph 28.8 mph 0.00 in Rain Light Rain
10:53 AM 37.0 °F 26.7 °F 34.0 °F 89% 29.81 in 2.5 mi NW 19.6 mph 28.8 mph 0.01 in Rain Light Rain
11:00 AM 37.4 °F 27.2 °F 33.8 °F 87% 29.80 in 4.0 mi NW 19.6 mph 28.8 mph 0.01 in Rain Light Rain
11:50 AM 35.6 °F 25.2 °F 33.8 °F 93% 29.83 in 2.0 mi NW 18.4 mph 28.8 mph 0.03 in Snow Light Snow
11:53 AM 36.0 °F 27.1 °F 33.1 °F 89% 29.86 in 2.5 mi NW 13.8 mph 28.8 mph 0.03 in Snow Light Snow
11:55 AM 35.6 °F 26.2 °F 33.8 °F 93% 29.84 in 3.0 mi NW 15.0 mph 28.8 mph 0.00 in Snow Light Snow
12:17 PM 35.6 °F 24.5 °F 33.8 °F 93% 29.84 in 4.0 mi NW 20.7 mph 29.9 mph 0.01 in   Overcast
12:53 PM 37.0 °F 27.7 °F 33.1 °F 86% 29.87 in 8.0 mi NW 16.1 mph 27.6 mph 0.01 in   Overcast
1:44 PM 37.4 °F 28.2 °F 32.0 °F 81% 29.87 in 10.0 mi NW 16.1 mph 27.6 mph 0.00 in   Overcast
1:53 PM 37.0 °F 28.1 °F 32.0 °F 82% 29.91 in 10.0 mi NW 15.0 mph 23.0 mph 0.00 in   Overcast
2:53 PM 37.9 °F 28.5 °F 32.0 °F 79% 29.93 in 10.0 mi NW 17.3 mph 24.2 mph 0.00 in   Overcast
3:53 PM 39.0 °F 30.6 °F 30.9 °F 73% 29.94 in 10.0 mi NW 15.0 mph 20.7 mph N/A   Overcast
4:22 PM 39.2 °F 30.2 °F 30.2 °F 70% 29.93 in 10.0 mi NW 17.3 mph 28.8 mph N/A   Overcast
4:31 PM 39.2 °F 30.8 °F 30.2 °F 70% 29.94 in 10.0 mi WNW 15.0 mph 23.0 mph N/A   Overcast
4:53 PM 39.9 °F 31.8 °F 30.0 °F 68% 29.97 in 10.0 mi WNW 15.0 mph - N/A   Overcast
5:53 PM 39.9 °F 31.4 °F 30.0 °F 68% 30.01 in 10.0 mi WNW 16.1 mph 24.2 mph N/A   Overcast
6:00 PM 39.2 °F 29.6 °F 28.4 °F 65% 29.99 in 10.0 mi WNW 19.6 mph 24.2 mph N/A   Overcast
6:53 PM 39.0 °F 29.0 °F 27.0 °F 62% 30.06 in 10.0 mi WNW 20.7 mph 28.8 mph N/A   Overcast
8:53 PM 37.9 °F 30.9 °F 28.0 °F 68% 30.12 in 10.0 mi West 10.4 mph 21.9 mph N/A   Overcast
9:53 PM 39.0 °F 30.3 °F 26.1 °F 60% 30.14 in 10.0 mi West 16.1 mph 23.0 mph N/A   Overcast
10:53 PM 39.0 °F 30.3 °F 24.1 °F 55% 30.16 in 10.0 mi West 16.1 mph 20.7 mph N/A   Overcast
11:53 PM 37.9 °F 29.2 °F 24.1 °F 57% 30.17 in 10.0 mi West 15.0 mph 20.7 mph N/A   Overcast